[[{"header":{"parameterUnit":"m.s-1","parameterCategory":1,"la1":30.2991,"la2":30.254,"lo1":-89.0895,"lo2":-89.0444,"dy":0.0017,"dx":0.0017,"nx":28,"ny":28,"refTime":"2024-03-24T21:00:00:Z","depth":0,"parameterNumber":2,"parameterNumberName":"U-component_of_WINDS"},"data":[0,0,0,0,0,0,0,0,0,0,0,0,0,0,0,0,0,0,0,0,0,0,0,0,0,0,0,0,0,0,0,0,0,0,0,0,0,0,0,0,0,0,0,0,0,0,0,0,0,0,0,0,0,0,0,0,0,0,-5.9231,-5.9232,0,-5.9338,-5.934,-5.9341,-5.9331,-5.933,-5.9328,-5.9326,-5.9431,-5.9435,-5.944,0,0,0,0,0,0,0,0,0,0,0,0,0,-5.9015,-5.9019,-5.9231,-5.9232,-5.9234,-5.9338,-5.934,-5.9341,-5.9332,-5.933,-5.9328,-5.9326,-5.943,-5.9435,-5.944,0,0,0,0,0,0,0,0,0,0,0,0,0,-5.9114,-5.902,-5.9231,-5.9242,-5.9244,-5.9338,-5.934,-5.9341,-5.9332,-5.933,-5.9327,-5.9325,-5.9428,-5.9434,-5.9441,-5.953,0,0,-5.9461,-5.9463,0,0,0,0,0,0,0,0,-5.9108,-5.9122,-5.9239,-5.9241,-5.9244,-5.9319,-5.9302,-5.9404,-5.9333,-5.9298,-5.9326,-5.9324,-5.9396,-5.9405,-5.943,-5.9534,-5.9539,-5.9461,-5.9465,-5.9468,-5.947,0,0,0,0,0,0,0,-5.9101,-5.9117,-5.9273,-5.924,-5.9243,-5.924,-5.9252,-5.9321,-5.9359,-5.9301,-5.9301,-5.9314,-5.9396,-5.9424,-5.9432,-5.954,-5.9461,-5.9467,-5.9471,-5.9473,-5.9724,-5.9726,0,0,0,0,0,0,-5.9093,-5.9112,-5.927,-5.9277,-5.9169,-5.9246,-5.9259,-5.9297,-5.9358,-5.9365,-5.9316,-5.9313,-5.9414,-5.9425,-5.9436,-5.9543,-5.9468,-5.9474,-5.9478,-5.9721,-5.9724,-5.9727,0,0,0,0,0,0,-5.9088,-5.9107,-5.9266,-5.9194,-5.9214,-5.9252,-5.9296,-5.9301,-5.9328,-5.937,-5.9376,-5.9337,-5.9412,-5.9427,-5.9507,-5.9547,-5.9477,-5.9483,-5.9718,-5.9722,-5.9726,-5.9758,0,0,0,0,0,0,-5.9082,-5.9105,-5.914,-5.9195,-5.9218,-5.9335,-5.9298,-5.9304,-5.934,-5.9337,-5.9391,-5.9397,-5.9412,-5.9497,-5.9513,-5.9554,-5.9488,-5.9714,-5.9719,-5.9724,-5.9754,-5.9763,-5.9771,0,0,0,0,0,-5.9074,-5.9144,-5.9142,-5.9161,-5.9262,-5.9338,-5.9351,-5.9367,-5.9343,-5.9377,-5.9405,-5.9396,-5.9541,-5.9505,-5.9523,-5.9567,-5.9711,-5.9718,-5.9724,-5.975,-5.9761,-5.9771,0,0,0,0,0,0,-5.909,-5.9151,-5.9149,-5.9239,-5.9284,-5.9336,-5.938,-5.9378,-5.9429,-5.9424,-5.9441,-5.9453,-5.9534,-5.9559,-5.9519,-5.9656,-5.9623,-5.9633,-5.9636,-5.9648,-5.9656,-5.9647,-5.9493,0,0,0,0,0,-5.9104,-5.9162,-5.9212,-5.9286,-5.9309,-5.9341,-5.9374,-5.9383,-5.9429,-5.9448,-5.948,-5.9524,-5.958,-5.9616,-5.9669,-5.9759,-5.977,-5.9798,-5.9807,-5.9814,-5.9821,-5.987,-5.9883,-5.9748,-5.9748,-5.9748,0,0,-5.9133,-5.9174,-5.9209,-5.929,-5.9326,-5.9384,-5.9356,-5.9419,-5.9462,-5.9457,-5.9534,-5.956,-5.961,-5.9696,-5.9735,-5.9719,-5.9862,-5.9822,-5.9827,-5.983,-5.9878,-5.989,-5.9902,-5.9752,-5.9751,-5.975,0,0,-5.9215,-5.9253,-5.9319,-5.9356,-5.9411,-5.9432,-5.9448,-5.9502,-5.952,-5.9599,-5.9596,-5.9647,-5.9743,-5.9778,-5.9809,-5.9909,-5.9902,-5.9926,-5.9969,-6.0017,-6.0028,-6.0037,-6.0071,-6.0083,-5.9934,-5.9934,-5.9934,0,-5.9243,-5.9332,-5.9352,-5.9416,-5.9451,-5.9453,-5.9519,-5.9553,-5.9622,-5.9646,-5.9629,-5.9749,-5.9783,-5.9877,-5.9901,-5.9927,-5.9944,-5.9918,-6.0025,-6.0035,-6.0044,-6.0076,-6.0089,-5.9936,-5.9936,-5.9936,-5.9935,0,-5.9364,-5.9426,-5.9472,-5.9541,-5.9582,-5.9647,-5.9675,-5.9715,-5.9722,-5.9745,-5.9825,-5.9867,-5.9928,-5.9952,-5.9958,-6.0047,-6.0035,-6.0021,-5.9987,-6.0059,-6.0089,-6.0102,-5.994,-5.9939,-5.9938,-5.9937,0,0,-5.9455,-5.9537,-5.9553,-5.9584,-5.9647,-5.9694,-5.976,-5.9822,-5.9855,-5.9904,-5.9957,-6.004,-6.0028,-6.0063,-6.0073,-6.0116,-6.019,-6.0097,-6.0098,-6.0111,-6.0289,-6.0297,-6.0312,-6.0188,-6.0191,-6.0193,-6.0285,0,-5.9542,-5.9658,-5.9679,-5.9779,-5.9836,-5.984,-5.9897,-5.994,-5.9965,-6.0016,-6.0042,-6.01,-6.0081,-6.0102,-6.0144,-6.0172,-6.0226,-6.0167,-6.0236,-6.0238,-6.022,-6.0328,-6.0336,-6.0421,-6.0297,-6.0299,-6.03,0,-5.9657,-5.9711,-5.9818,-5.9874,-5.9898,-5.9949,-6.0008,-6.0058,-6.0108,-6.0123,-6.0164,-6.017,-6.0237,-6.0203,-6.0295,-6.0254,-6.0284,-6.0303,-6.0307,-6.0311,-6.0271,-6.0332,-6.0448,-6.046,-6.032,-6.0318,-6.0317,0,-5.971,-5.981,-5.9886,-5.9914,-5.9981,-6.0017,-6.0046,-6.0095,-6.0131,-6.0183,-6.0207,-6.0266,-6.0297,-6.0343,-6.0365,-6.0338,-6.0454,-6.0422,-6.0467,-6.0466,-6.0488,-6.0485,-6.0607,-6.0513,-6.0512,-6.0512,-6.0512,0,-5.9803,-5.9868,-5.9911,-5.9958,-6.0031,-6.0055,-6.0126,-6.0155,-6.0198,-6.025,-6.0258,-6.0306,-6.0334,-6.0386,-6.0404,-6.0476,-6.0491,-6.0504,-6.0507,-6.0501,-6.0499,-6.0519,-6.0512,-6.0516,-6.0515,-6.0514,-6.0514,0,-5.9873,-5.9905,-5.9989,-6.0048,-6.0064,-6.0115,-6.0164,-6.0209,-6.0235,-6.0301,-6.0318,-6.0357,-6.0419,-6.0447,-6.0523,-6.0536,-6.0618,-6.0618,-6.0601,-6.0601,-6.0643,-6.0638,-6.0779,-6.0798,-6.0693,-6.0694,-6.0695,0,-5.9929,-5.9979,-6.0044,-6.008,-6.0111,-6.0169,-6.0207,-6.0234,-6.0273,-6.0336,-6.0373,-6.0436,-6.0487,-6.0587,-6.0621,-6.068,-6.068,-6.0726,-6.0688,-6.0681,-6.0678,-6.0674,-6.0678,-6.0731,-6.0732,-6.0733,-6.0734,0,-6.0024,-6.0038,-6.0093,-6.0155,-6.0201,-6.025,-6.0298,-6.0327,-6.0361,-6.0405,-6.047,-6.051,-6.0589,-6.0651,-6.0712,-6.0742,-6.0743,-6.0746,-6.0759,-6.0752,-6.0739,-6.0744,-6.0616,-6.0741,-6.0741,-6.074,-6.074,-6.0739,-6.0087,-6.0131,-6.0184,-6.0246,-6.0286,-6.0332,-6.0377,-6.041,-6.0465,-6.0532,-6.0545,-6.0613,-6.0663,-6.0746,-6.0778,-6.0832,-6.082,-6.0839,-6.0844,-6.0847,-6.0849,-6.0733,-6.0843,-6.0843,-6.0843,-6.0843,-6.0842,0,-6.018,-6.0215,-6.0272,-6.034,-6.0389,-6.039,-6.0444,-6.0483,-6.0544,-6.0592,-6.0643,-6.0718,-6.0778,-6.082,-6.0881,-6.0916,-6.0918,-6.0931,-6.0926,-6.0933,-6.0856,-6.0838,-6.0928,-6.0928,-6.0928,-6.0928,-6.0928,-6.0928,-6.0234,-6.031,-6.033,-6.0426,-6.046,-6.0529,-6.0559,-6.0601,-6.0639,-6.0723,-6.0774,-6.0801,-6.0846,-6.0911,-6.0967,-6.0977,-6.0998,-6.1011,-6.1021,-6.0948,-6.0939,-6.093,-6.0913,-6.1017,-6.1017,-6.1093,-6.1094,-6.1094]},{"header":{"parameterUnit":"m.s-1","parameterCategory":1,"la1":30.2991,"la2":30.254,"lo1":-89.0895,"lo2":-89.0444,"dy":0.0017,"dx":0.0017,"nx":28,"ny":28,"refTime":"2024-03-24T21:00:00:Z","depth":0,"parameterNumber":3,"parameterNumberName":"V-component_of_WINDS"},"data":[0,0,0,0,0,0,0,0,0,0,0,0,0,0,0,0,0,0,0,0,0,0,0,0,0,0,0,0,0,0,0,0,0,0,0,0,0,0,0,0,0,0,0,0,0,0,0,0,0,0,0,0,0,0,0,0,0,0,5.1493,5.1495,0,5.1646,5.1648,5.1649,5.1675,5.1674,5.1673,5.1672,5.1823,5.1828,5.1834,0,0,0,0,0,0,0,0,0,0,0,0,0,5.122,5.1225,5.1493,5.1495,5.1497,5.1646,5.1648,5.165,5.1676,5.1674,5.1673,5.1671,5.1822,5.1828,5.1834,0,0,0,0,0,0,0,0,0,0,0,0,0,5.1352,5.1227,5.1492,5.1528,5.1532,5.1645,5.1648,5.165,5.1676,5.1674,5.1672,5.167,5.1819,5.1827,5.1835,5.1922,0,0,5.1859,5.1862,0,0,0,0,0,0,0,0,5.1345,5.1362,5.152,5.1525,5.1531,5.164,5.1607,5.1741,5.1677,5.1621,5.1672,5.1669,5.1763,5.1776,5.1809,5.1929,5.1936,5.186,5.1864,5.1868,5.187,0,0,0,0,0,0,0,5.1336,5.1356,5.1553,5.1523,5.1529,5.1535,5.1552,5.1633,5.1701,5.1626,5.1628,5.1646,5.1766,5.1801,5.1812,5.1938,5.1859,5.1866,5.1871,5.1874,5.214,5.2143,0,0,0,0,0,0,5.1321,5.1348,5.1548,5.1558,5.1431,5.1541,5.156,5.1607,5.17,5.1713,5.1648,5.1647,5.1788,5.1803,5.1818,5.1928,5.1868,5.1875,5.188,5.2138,5.2141,5.2143,0,0,0,0,0,0,5.1315,5.1338,5.1542,5.1454,5.148,5.1548,5.16,5.1611,5.1646,5.1717,5.1729,5.1671,5.1788,5.1807,5.1897,5.1933,5.1879,5.1886,5.2135,5.2139,5.2142,5.2147,0,0,0,0,0,0,5.1307,5.1336,5.137,5.1454,5.1485,5.162,5.1603,5.1615,5.166,5.166,5.1742,5.1754,5.1787,5.1885,5.1905,5.1943,5.1892,5.2132,5.2137,5.2141,5.2144,5.215,5.2156,0,0,0,0,0,5.1297,5.1364,5.1372,5.1396,5.1529,5.1622,5.1639,5.1678,5.1663,5.1698,5.1744,5.1751,5.1926,5.1894,5.1916,5.1958,5.213,5.2136,5.2141,5.2141,5.2149,5.2156,0,0,0,0,0,0,5.1279,5.1375,5.1385,5.1481,5.1544,5.1626,5.1671,5.1684,5.175,5.1748,5.1792,5.181,5.1898,5.1937,5.1899,5.2048,5.2027,5.2037,5.202,5.2028,5.2034,5.2022,5.1898,0,0,0,0,0,5.1287,5.1355,5.1435,5.1512,5.1543,5.1602,5.1643,5.1668,5.1734,5.1759,5.1812,5.1874,5.1943,5.1988,5.2055,5.215,5.2169,5.219,5.2196,5.22,5.2208,5.2263,5.2274,5.2161,5.2161,5.2161,0,0,5.1303,5.1364,5.1403,5.151,5.1561,5.1631,5.1623,5.1696,5.1748,5.177,5.1859,5.19,5.1972,5.2066,5.211,5.2101,5.2244,5.2207,5.221,5.2216,5.227,5.2281,5.229,5.2165,5.2164,5.2163,0,0,5.1367,5.142,5.1491,5.1543,5.1622,5.1661,5.1678,5.176,5.1789,5.188,5.1899,5.196,5.2078,5.213,5.2171,5.2259,5.2269,5.228,5.231,5.2364,5.2372,5.2381,5.2413,5.2424,5.2287,5.2287,5.2287,0,5.1376,5.1483,5.1525,5.1599,5.1646,5.1672,5.1745,5.1793,5.1888,5.192,5.1909,5.206,5.211,5.2217,5.2239,5.2272,5.2293,5.227,5.2368,5.2377,5.2385,5.2416,5.2428,5.2288,5.2288,5.2288,5.2288,0,5.1491,5.1564,5.1612,5.1707,5.176,5.1832,5.1886,5.1933,5.1955,5.1995,5.2088,5.215,5.2232,5.2259,5.2279,5.237,5.2362,5.2359,5.2339,5.2396,5.2426,5.2438,5.229,5.2289,5.2289,5.2289,0,0,5.1546,5.1667,5.1683,5.1728,5.1818,5.1875,5.195,5.2032,5.2073,5.2138,5.2202,5.2303,5.2302,5.2349,5.2376,5.2423,5.249,5.2414,5.2417,5.2427,5.2596,5.2598,5.2611,5.2498,5.25,5.2502,5.259,0,5.1622,5.1757,5.1799,5.1912,5.1981,5.2008,5.2073,5.2135,5.2176,5.224,5.2283,5.2355,5.2348,5.2377,5.2424,5.2472,5.2525,5.2466,5.2557,5.256,5.2538,5.2626,5.2628,5.2708,5.2602,5.2604,5.2605,0,5.1728,5.1799,5.1919,5.2003,5.2033,5.2091,5.2171,5.2232,5.2304,5.233,5.2385,5.2408,5.2487,5.2463,5.2572,5.2531,5.2571,5.2601,5.2605,5.2614,5.2586,5.2639,5.2734,5.2746,5.2624,5.2623,5.2621,0,5.1758,5.1883,5.1972,5.2009,5.2108,5.2149,5.2192,5.2262,5.231,5.2379,5.2411,5.2488,5.253,5.2589,5.2633,5.2611,5.2739,5.2718,5.2763,5.2762,5.2788,5.2786,5.2891,5.2813,5.2813,5.2813,5.2812,0,5.1838,5.1911,5.1987,5.2041,5.2124,5.2172,5.2252,5.2297,5.2359,5.2423,5.245,5.2509,5.2564,5.263,5.2664,5.2751,5.2769,5.2792,5.28,5.279,5.2787,5.2816,5.2812,5.2816,5.2815,5.2815,5.2814,0,5.1885,5.1939,5.2038,5.2126,5.2149,5.2207,5.2281,5.2335,5.2378,5.2458,5.248,5.2546,5.2625,5.2676,5.2775,5.2799,5.2894,5.29,5.287,5.2874,5.2917,5.2912,5.3045,5.3065,5.2973,5.2974,5.2974,0,5.1933,5.199,5.2085,5.2131,5.2175,5.2247,5.2297,5.2347,5.2398,5.2486,5.2529,5.2611,5.2679,5.2805,5.2861,5.2939,5.2947,5.2989,5.2959,5.2947,5.2949,5.2945,5.2952,5.2993,5.2994,5.2994,5.2995,0,5.2013,5.2037,5.2109,5.2191,5.225,5.2316,5.2382,5.2418,5.2479,5.2534,5.2618,5.2671,5.2775,5.2856,5.2939,5.2983,5.3,5.3004,5.3019,5.3009,5.299,5.3002,5.2884,5.3001,5.3,5.3,5.2999,5.2999,5.2062,5.2115,5.2191,5.2271,5.2326,5.2388,5.2444,5.2495,5.2566,5.2656,5.2681,5.2768,5.284,5.2954,5.3,5.3068,5.3062,5.3083,5.3089,5.3093,5.3094,5.2979,5.3083,5.3083,5.3083,5.3083,5.3083,0,5.2144,5.2196,5.2268,5.2361,5.2424,5.2437,5.2511,5.2563,5.264,5.2706,5.2774,5.287,5.295,5.3014,5.3096,5.3138,5.3148,5.3158,5.3155,5.3166,5.3094,5.3074,5.3149,5.3149,5.3149,5.3149,5.3149,5.3149,5.2195,5.2286,5.232,5.2439,5.2489,5.2577,5.2618,5.2676,5.273,5.2837,5.2904,5.2946,5.3012,5.3099,5.3173,5.319,5.3219,5.3228,5.3246,5.3178,5.317,5.3163,5.3144,5.3233,5.3233,5.3312,5.3312,5.3313]}]]